Location: Bannatyne
(13.0833°N, 59.5333°W)
Time: 16:31:49
(UTC+00:00)

Courier 1B Rocket - All Passes

Search period start: 24 January 2020 00:00
Search period end: 03 February 2020 00:00
Orbit: 920 x 1202 km, 28.2° (Epoch: 23 January)

Date Brightness Start Highest point End Pass type
(mag) Time Alt. Az. Time Alt. Az. Time Alt. Az.
24 Jan - 11:31:53 10° SSW 11:38:22 29° SSE 11:44:38 10° E daylight
24 Jan - 13:24:24 10° WSW 13:32:07 87° SSE 13:39:21 10° ENE daylight
24 Jan - 15:19:24 10° W 15:26:07 37° NNW 15:32:25 10° NE daylight
24 Jan - 17:15:37 10° NW 17:20:45 22° N 17:25:40 10° NE daylight
24 Jan - 19:10:23 10° NW 19:15:35 24° N 19:20:35 10° ENE daylight
24 Jan - 21:03:33 10° NW 21:09:44 53° NNE 21:15:47 10° E daylight
24 Jan - 22:57:11 10° WNW 23:03:07 46° SSW 23:09:08 10° SE visible
25 Jan - 00:54:47 10° SW 00:56:34 11° SSW 00:58:22 10° SSW visible
25 Jan - 10:31:47 10° SSW 10:37:01 19° SSE 10:42:12 10° ESE daylight
25 Jan - 12:23:10 10° SW 12:30:51 62° SSE 12:38:09 10° ENE daylight
25 Jan - 14:17:27 10° W 14:24:44 49° NNW 14:31:35 10° NE daylight
25 Jan - 16:13:30 10° WNW 16:19:12 25° N 16:24:37 10° NE daylight
25 Jan - 18:09:02 10° NW 18:14:06 22° N 18:18:58 10° NE daylight
25 Jan - 20:02:35 10° NW 20:08:34 38° NNE 20:14:21 10° E daylight
25 Jan - 21:55:54 10° WNW 22:02:10 71° SSW 22:08:23 10° SE daylight
25 Jan - 23:51:19 10° WSW 23:55:27 18° SSW 23:59:40 10° SSE visible
26 Jan - 09:32:47 10° S 09:35:37 12° SSE 09:38:26 10° SE visible
26 Jan - 11:22:14 10° SW 11:29:33 43° SSE 11:36:40 10° E daylight
26 Jan - 13:15:41 10° WSW 13:23:22 68° NNW 13:30:39 10° ENE daylight
26 Jan - 15:11:19 10° WNW 15:17:40 30° NNW 15:23:41 10° NE daylight
26 Jan - 17:07:22 10° NW 17:12:33 21° N 17:17:29 10° NE daylight
26 Jan - 19:01:32 10° NW 19:07:17 30° NNE 19:12:47 10° ENE daylight
26 Jan - 20:54:46 10° WNW 21:01:11 78° NNE 21:07:25 10° ESE daylight
26 Jan - 22:49:10 10° W 22:54:27 29° SSW 22:59:45 10° SSE visible
27 Jan - 10:21:39 10° SSW 10:28:15 30° SSE 10:34:47 10° E daylight
27 Jan - 12:14:10 10° WSW 12:22:02 88° SSE 12:29:35 10° ENE daylight
27 Jan - 14:09:10 10° W 14:16:10 38° NNW 14:22:47 10° NE daylight
27 Jan - 16:05:24 10° NW 16:10:56 23° N 16:16:12 10° NE daylight
27 Jan - 18:00:18 10° NW 18:05:52 26° N 18:11:10 10° ENE daylight
27 Jan - 19:53:41 10° NW 20:00:06 54° NNE 20:06:14 10° E daylight
27 Jan - 21:47:30 10° WNW 21:53:30 45° SSW 21:59:24 10° SE daylight
27 Jan - 23:45:59 10° SW 23:46:52 10° SSW 23:47:45 10° SSW visible
28 Jan - 09:21:36 10° SSW 09:26:55 20° SSE 09:32:16 10° ESE visible
28 Jan - 11:12:57 10° SW 11:20:43 64° SSE 11:28:18 10° ENE daylight
28 Jan - 13:07:13 10° W 13:14:42 50° NNW 13:21:51 10° NE daylight
28 Jan - 15:03:15 10° WNW 15:09:19 26° N 15:15:04 10° NE daylight
28 Jan - 16:58:51 10° NW 17:04:20 23° N 17:09:33 10° ENE daylight
28 Jan - 18:52:35 10° NW 18:58:54 40° NNE 19:04:52 10° E daylight
28 Jan - 20:46:06 10° WNW 20:52:33 70° SSW 20:58:45 10° SE daylight
28 Jan - 22:41:46 10° WSW 22:45:47 18° SSW 22:49:48 10° S visible
29 Jan - 08:22:40 10° S 08:25:33 12° SSE 08:28:27 10° SE visible
29 Jan - 10:12:04 10° SW 10:19:24 44° SSE 10:26:43 10° E daylight
29 Jan - 12:05:28 10° WSW 12:13:16 67° NNW 12:20:50 10° ENE daylight
29 Jan - 14:01:04 10° WNW 14:07:42 31° NNW 14:14:02 10° NE daylight
29 Jan - 15:57:07 10° NW 16:02:43 23° N 16:08:02 10° NE daylight
29 Jan - 17:51:25 10° NW 17:57:34 32° NNE 18:03:20 10° ENE daylight
29 Jan - 19:44:50 10° WNW 19:51:32 80° NNE 19:57:51 10° ESE daylight
29 Jan - 21:39:28 10° W 21:44:48 28° SSW 21:50:02 10° SSE daylight
30 Jan - 09:11:34 10° SSW 09:18:07 30° SSE 09:24:44 10° E visible
30 Jan - 11:04:01 10° WSW 11:11:53 90° SSE 11:19:39 10° ENE daylight
30 Jan - 12:58:57 10° W 13:06:07 38° NNW 13:13:02 10° NE daylight
30 Jan - 14:55:08 10° NW 15:01:01 24° N 15:06:40 10° NE daylight
30 Jan - 16:50:06 10° NW 16:56:05 27° N 17:01:43 10° ENE daylight
30 Jan - 18:43:39 10° NW 18:50:24 57° NNE 18:56:44 10° E daylight
30 Jan - 20:37:40 10° W 20:43:51 44° SSW 20:49:47 10° SE daylight
31 Jan - 08:11:35 10° SSW 08:16:49 20° SSE 08:22:10 10° ESE visible
31 Jan - 10:02:52 10° SW 10:10:32 65° SSE 10:18:17 10° ENE visible
31 Jan - 11:57:02 10° W 12:04:35 50° NNW 12:11:59 10° NE daylight
31 Jan - 13:53:00 10° WNW 13:59:20 27° N 14:05:24 10° NE daylight
31 Jan - 15:48:35 10° NW 15:54:28 25° N 16:00:04 10° ENE daylight
31 Jan - 17:42:27 10° NW 17:49:08 42° NNE 17:55:23 10° E daylight
31 Jan - 19:36:08 10° WNW 19:42:53 68° SSW 19:49:12 10° SE daylight
31 Jan - 21:32:03 10° WSW 21:36:07 17° SSW 21:40:05 10° S daylight
01 Feb - 07:12:48 10° S 07:15:31 12° SSE 07:18:15 10° SE visible
01 Feb - 09:02:03 10° SW 09:09:15 45° SSE 09:16:38 10° E visible
01 Feb - 10:55:22 10° WSW 11:03:07 66° NNW 11:10:51 10° ENE daylight
01 Feb - 12:50:52 10° WNW 12:57:38 31° NNW 13:04:14 10° NE daylight
01 Feb - 14:46:49 10° NW 14:52:46 24° N 14:58:28 10° NE daylight
01 Feb - 16:41:12 10° NW 16:47:44 34° NNE 16:53:51 10° ENE daylight
01 Feb - 18:34:46 10° WNW 18:41:49 83° NNE 18:48:21 10° ESE daylight
01 Feb - 20:29:35 10° W 20:35:07 28° SSW 20:40:26 10° SSE daylight
02 Feb - 08:01:38 10° SSW 08:08:00 30° SSE 08:14:35 10° E visible
02 Feb - 09:53:59 10° WSW 10:01:42 89° NNW 10:09:35 10° ENE visible
02 Feb - 11:48:49 10° W 11:56:00 38° NNW 12:03:06 10° NE daylight
02 Feb - 13:44:52 10° WNW 13:51:01 25° N 13:56:58 10° NE daylight
02 Feb - 15:39:49 10° NW 15:46:11 29° N 15:52:12 10° ENE daylight
02 Feb - 17:33:29 10° NW 17:40:37 59° NNE 17:47:13 10° ESE daylight
02 Feb - 19:27:40 10° W 19:34:09 44° SSW 19:40:14 10° SE daylight
